LNI1130 WIMM-OEMA

Flight info

Callsign LNI1130
Flight time 8h 12m
Altitude 40000
Route MAIMU DCT MEMAK N563 REXOD L883 UMILA N569 TOKRA DCT ITRUX Y511 ELONU
Aircraft A339/H-SADE1E2E3GHIJ3J5M1P2RWXY/LB2D1

Departure

Time 2026-04-29 11:29
Airport Kualanamu International Airport (WIMM)

Arrival

Time 2026-04-29 19:41
Airport Prince Mohammad Bin Abdulaziz Airport (OEMA)
Time Latitude Longitude Altitude Speed Heading
2026-04-29 10:52 3.63630 98.88103 46 ft 0 kts 226°
2026-04-29 11:13 3.63632 98.88106 44 ft 2 kts 226°
2026-04-29 11:13 3.63646 98.88119 45 ft 3 kts 230°
2026-04-29 11:14 3.63657 98.88134 43 ft 3 kts 243°
2026-04-29 11:14 3.63667 98.88152 43 ft 2 kts 242°
2026-04-29 11:14 3.63676 98.88170 43 ft 3 kts 246°
2026-04-29 11:14 3.63677 98.88172 44 ft 0 kts 248°
2026-04-29 11:17 3.63678 98.88168 45 ft 2 kts 259°
2026-04-29 11:18 3.63692 98.88146 44 ft 6 kts 309°
2026-04-29 11:18 3.63734 98.88108 46 ft 10 kts 316°
2026-04-29 11:18 3.63784 98.88059 46 ft 11 kts 316°
2026-04-29 11:18 3.63843 98.88003 46 ft 11 kts 315°
2026-04-29 11:19 3.63906 98.87968 46 ft 9 kts
2026-04-29 11:19 3.63959 98.88002 46 ft 12 kts 34°
2026-04-29 11:19 3.64035 98.88073 46 ft 16 kts 44°
2026-04-29 11:19 3.64097 98.88132 46 ft 10 kts 40°
2026-04-29 11:20 3.64158 98.88119 46 ft 10 kts 322°
2026-04-29 11:20 3.64205 98.88072 46 ft 10 kts 315°
2026-04-29 11:20 3.64225 98.88053 46 ft 0 kts 315°
2026-04-29 11:21 3.64225 98.88052 46 ft 1 kts 315°
2026-04-29 11:21 3.64233 98.88044 46 ft 3 kts 315°
2026-04-29 11:21 3.64249 98.88028 46 ft 7 kts 315°
2026-04-29 11:21 3.64292 98.87975 46 ft 10 kts 294°
2026-04-29 11:22 3.64279 98.87930 46 ft 10 kts 244°
2026-04-29 11:22 3.64286 98.87880 45 ft 10 kts 298°
2026-04-29 11:22 3.64296 98.87842 45 ft 8 kts 271°
2026-04-29 11:22 3.64265 98.87790 44 ft 8 kts 230°
2026-04-29 11:23 3.64216 98.87737 44 ft 17 kts 226°
2026-04-29 11:23 3.64118 98.87642 43 ft 21 kts 224°
2026-04-29 11:23 3.64014 98.87538 44 ft 21 kts 225°
2026-04-29 11:23 3.63906 98.87431 44 ft 21 kts 225°
2026-04-29 11:24 3.63803 98.87326 45 ft 21 kts 225°
2026-04-29 11:24 3.63696 98.87218 45 ft 22 kts 225°
2026-04-29 11:24 3.63586 98.87111 45 ft 23 kts 223°
2026-04-29 11:24 3.63470 98.86996 45 ft 24 kts 226°
2026-04-29 11:25 3.63350 98.86873 45 ft 25 kts 225°
2026-04-29 11:25 3.63226 98.86752 44 ft 25 kts 224°
2026-04-29 11:25 3.63100 98.86628 45 ft 25 kts 224°
2026-04-29 11:25 3.62974 98.86505 45 ft 23 kts 224°
2026-04-29 11:26 3.62759 98.86294 45 ft 20 kts 225°
2026-04-29 11:26 3.62659 98.86195 45 ft 21 kts 225°
2026-04-29 11:26 3.62560 98.86095 45 ft 10 kts 225°
2026-04-29 11:27 3.62520 98.86052 45 ft 10 kts 234°
2026-04-29 11:27 3.62505 98.85985 44 ft 8 kts 279°
2026-04-29 11:27 3.62509 98.85973 42 ft 3 kts 284°
2026-04-29 11:27 3.62524 98.85944 43 ft 10 kts 299°
2026-04-29 11:28 3.62578 98.85887 42 ft 9 kts 315°
2026-04-29 11:28 3.62619 98.85892 42 ft 6 kts 35°
2026-04-29 11:28 3.62672 98.85952 43 ft 33 kts 45°
2026-04-29 11:28 3.63069 98.86346 42 ft 124 kts 45°
2026-04-29 11:29 3.63834 98.87110 224 ft 175 kts 44°
2026-04-29 11:29 3.64820 98.87809 1003 ft 175 kts 22°
2026-04-29 11:29 3.66087 98.87983 1540 ft 199 kts 353°
2026-04-29 11:29 3.67414 98.87441 2055 ft 215 kts 322°
2026-04-29 11:30 3.68430 98.86264 2532 ft 234 kts 300°
2026-04-29 11:30 3.69212 98.84788 2945 ft 252 kts 299°
2026-04-29 11:30 3.70344 98.83373 3340 ft 266 kts 313°
2026-04-29 11:30 3.71640 98.82027 3957 ft 269 kts 314°
2026-04-29 11:31 3.72946 98.80697 4640 ft 271 kts 315°
2026-04-29 11:31 3.74270 98.79333 5309 ft 272 kts 315°
2026-04-29 11:31 3.75545 98.77900 5888 ft 278 kts 304°
2026-04-29 11:31 3.76241 98.76177 6832 ft 264 kts 287°
2026-04-29 11:32 3.76736 98.74406 7543 ft 265 kts 287°
2026-04-29 11:32 3.77235 98.72602 8118 ft 269 kts 287°
2026-04-29 11:32 3.77748 98.70787 8718 ft 273 kts 287°
2026-04-29 11:32 3.78275 98.68960 9297 ft 277 kts 287°
2026-04-29 11:33 3.78819 98.67086 9866 ft 281 kts 287°
2026-04-29 11:33 3.79369 98.65195 10435 ft 283 kts 287°
2026-04-29 11:33 3.79918 98.63311 11012 ft 286 kts 287°
2026-04-29 11:33 3.80478 98.61392 11598 ft 288 kts 287°
2026-04-29 11:34 3.81046 98.59448 12188 ft 291 kts 287°
2026-04-29 11:34 3.81617 98.57495 12779 ft 293 kts 287°
2026-04-29 11:34 3.82188 98.55540 13308 ft 299 kts 287°
2026-04-29 11:34 3.82792 98.53478 13479 ft 318 kts 287°
2026-04-29 11:35 3.83432 98.51290 13642 ft 335 kts 287°
2026-04-29 11:35 3.84106 98.48982 13797 ft 352 kts 287°
2026-04-29 11:35 3.84808 98.46576 13932 ft 367 kts 287°
2026-04-29 11:35 3.85534 98.44087 14216 ft 375 kts 287°
2026-04-29 11:36 3.86257 98.41606 14690 ft 377 kts 287°
2026-04-29 11:36 3.86997 98.39066 15145 ft 380 kts 287°
2026-04-29 11:36 3.87745 98.36503 15592 ft 383 kts 287°
2026-04-29 11:36 3.88489 98.33955 16054 ft 386 kts 287°
2026-04-29 11:37 3.89247 98.31356 16471 ft 389 kts 286°
2026-04-29 11:37 3.90007 98.28748 16927 ft 391 kts 286°
2026-04-29 11:37 3.90776 98.26111 17355 ft 394 kts 286°
2026-04-29 11:37 3.91539 98.23495 17777 ft 397 kts 286°
2026-04-29 11:38 3.92315 98.20834 18195 ft 399 kts 286°
2026-04-29 11:38 3.93097 98.18151 18588 ft 402 kts 286°
2026-04-29 11:38 3.93888 98.15446 18946 ft 405 kts 286°
2026-04-29 11:38 3.94678 98.12744 19302 ft 407 kts 286°
2026-04-29 11:39 3.95481 98.09996 19669 ft 410 kts 286°
2026-04-29 11:39 3.96274 98.07276 20018 ft 413 kts 286°
2026-04-29 11:39 3.97083 98.04500 20382 ft 416 kts 286°
2026-04-29 11:39 3.97896 98.01706 20769 ft 419 kts 286°
2026-04-29 11:40 3.98716 97.98886 21130 ft 422 kts 286°
2026-04-29 11:40 3.99531 97.96085 21485 ft 424 kts 286°
2026-04-29 11:40 4.00362 97.93225 21857 ft 427 kts 286°
2026-04-29 11:40 4.01198 97.90350 22228 ft 430 kts 286°
2026-04-29 11:41 4.02036 97.87460 22620 ft 433 kts 286°
2026-04-29 11:41 4.02871 97.84577 23001 ft 435 kts 286°
2026-04-29 11:41 4.03723 97.81639 23362 ft 439 kts 286°
2026-04-29 11:41 4.04580 97.78693 23694 ft 442 kts 286°
2026-04-29 11:42 4.05430 97.75766 24011 ft 444 kts 286°
2026-04-29 11:42 4.06293 97.72792 24364 ft 446 kts 287°
2026-04-29 11:42 4.07164 97.69795 24692 ft 448 kts 287°
2026-04-29 11:42 4.08038 97.66787 25005 ft 450 kts 287°
2026-04-29 11:43 4.08917 97.63762 25310 ft 453 kts 287°
2026-04-29 11:43 4.09791 97.60753 25617 ft 455 kts 287°
2026-04-29 11:43 4.10678 97.57699 25946 ft 457 kts 287°
2026-04-29 11:43 4.11570 97.54628 26269 ft 459 kts 287°
2026-04-29 11:44 4.12465 97.51544 26581 ft 462 kts 287°
2026-04-29 11:44 4.13364 97.48450 26878 ft 464 kts 287°
2026-04-29 11:44 4.14267 97.45334 27193 ft 466 kts 287°
2026-04-29 11:44 4.15165 97.42232 27457 ft 469 kts 287°
2026-04-29 11:45 4.16082 97.39069 27775 ft 471 kts 287°
2026-04-29 11:45 4.16997 97.35912 28047 ft 473 kts 288°
2026-04-29 11:45 4.17910 97.32766 28328 ft 476 kts 288°
2026-04-29 11:45 4.18839 97.29563 28666 ft 477 kts 288°
2026-04-29 11:46 4.19768 97.26361 28942 ft 479 kts 288°
2026-04-29 11:46 4.20703 97.23138 29229 ft 482 kts 288°
2026-04-29 11:46 4.21631 97.19935 29535 ft 484 kts 288°
2026-04-29 11:46 4.22574 97.16683 29823 ft 486 kts 288°
2026-04-29 11:47 4.23522 97.13413 30093 ft 489 kts 288°
2026-04-29 11:47 4.24472 97.10131 30355 ft 491 kts 288°
2026-04-29 11:47 4.25424 97.06843 30692 ft 491 kts 288°
2026-04-29 11:47 4.26369 97.03577 30965 ft 493 kts 287°
2026-04-29 11:48 4.27331 97.00256 31272 ft 495 kts 287°
2026-04-29 11:48 4.28293 96.96936 31559 ft 496 kts 287°
2026-04-29 11:48 4.29258 96.93605 31831 ft 498 kts 287°
2026-04-29 11:48 4.30224 96.90267 32125 ft 499 kts 287°
2026-04-29 11:49 4.31184 96.86951 32381 ft 501 kts 287°
2026-04-29 11:49 4.32158 96.83585 32592 ft 502 kts 287°
2026-04-29 11:49 4.33138 96.80196 32733 ft 505 kts 287°
2026-04-29 11:49 4.34108 96.76844 32923 ft 506 kts 287°
2026-04-29 11:50 4.35143 96.73466 33081 ft 507 kts 290°
2026-04-29 11:50 4.36513 96.70204 33219 ft 507 kts 296°
2026-04-29 11:50 4.39476 96.63768 33472 ft 509 kts 295°
2026-04-29 11:51 4.40932 96.60576 33612 ft 509 kts 295°
2026-04-29 11:51 4.42400 96.57350 33773 ft 508 kts 295°
2026-04-29 11:51 4.43871 96.54117 33914 ft 508 kts 295°
2026-04-29 11:51 4.45341 96.50887 34058 ft 507 kts 295°
2026-04-29 11:52 4.46792 96.47700 34202 ft 507 kts 295°
2026-04-29 11:52 4.48257 96.44480 34352 ft 506 kts 295°
2026-04-29 11:52 4.49717 96.41272 34531 ft 505 kts 295°
2026-04-29 11:52 4.51180 96.38056 34628 ft 505 kts 295°
2026-04-29 11:53 4.52619 96.34894 34782 ft 504 kts 295°
2026-04-29 11:53 4.54076 96.31689 34932 ft 503 kts 295°
2026-04-29 11:53 4.55528 96.28495 35103 ft 503 kts 295°
2026-04-29 11:53 4.56985 96.25293 35258 ft 502 kts 295°
2026-04-29 11:54 4.58419 96.22139 35399 ft 501 kts 295°
2026-04-29 11:54 4.59863 96.18961 35562 ft 500 kts 294°
2026-04-29 11:54 4.61308 96.15781 35732 ft 500 kts 294°
2026-04-29 11:54 4.62739 96.12634 35901 ft 499 kts 294°
2026-04-29 11:55 4.64180 96.09462 36072 ft 499 kts 294°
2026-04-29 11:55 4.65623 96.06286 36247 ft 497 kts 295°
2026-04-29 11:55 4.67039 96.03168 36459 ft 497 kts 295°
2026-04-29 11:55 4.68474 96.00009 36635 ft 496 kts 295°
2026-04-29 11:56 4.69904 95.96860 36820 ft 496 kts 294°
2026-04-29 11:56 4.71330 95.93718 36994 ft 495 kts 294°
2026-04-29 11:56 4.72760 95.90569 37171 ft 494 kts 294°
2026-04-29 11:56 4.74170 95.87463 37343 ft 494 kts 294°
2026-04-29 11:57 4.75597 95.84319 37518 ft 494 kts 294°
2026-04-29 11:57 4.77029 95.81163 37690 ft 493 kts 294°
2026-04-29 11:57 4.78429 95.78077 37851 ft 492 kts 294°
2026-04-29 11:57 4.79850 95.74947 38029 ft 492 kts 294°
2026-04-29 11:58 4.81268 95.71819 38188 ft 491 kts 294°
2026-04-29 11:58 4.82689 95.68684 38309 ft 493 kts 295°
2026-04-29 11:58 4.85524 95.62431 38482 ft 496 kts 295°
2026-04-29 11:59 4.86953 95.59282 38619 ft 495 kts 295°
2026-04-29 11:59 4.88381 95.56134 38807 ft 494 kts 295°
2026-04-29 11:59 4.89800 95.53003 38943 ft 493 kts 295°
2026-04-29 11:59 4.91218 95.49874 39104 ft 492 kts 295°
2026-04-29 12:00 4.92617 95.46787 39238 ft 491 kts 295°
2026-04-29 12:00 4.94033 95.43664 39378 ft 490 kts 294°
2026-04-29 12:00 4.95442 95.40555 39568 ft 488 kts 294°
2026-04-29 12:00 4.96844 95.37457 39711 ft 487 kts 294°
2026-04-29 12:01 4.98246 95.34358 39824 ft 487 kts 294°
2026-04-29 12:01 4.99648 95.31261 39832 ft 487 kts 294°
2026-04-29 12:01 5.02426 95.25123 39825 ft 484 kts 294°
2026-04-29 12:02 5.05229 95.18930 39825 ft 487 kts 294°
2026-04-29 12:02 5.08028 95.12742 39832 ft 491 kts 294°
2026-04-29 12:03 5.10845 95.06514 39830 ft 486 kts 294°
2026-04-29 12:03 5.13649 95.00311 39841 ft 486 kts 294°
2026-04-29 12:04 5.16429 94.94161 39845 ft 487 kts 294°
2026-04-29 12:04 5.19229 94.87961 39842 ft 486 kts 294°
2026-04-29 12:05 5.22021 94.81782 39843 ft 489 kts 294°
2026-04-29 12:05 5.24819 94.75588 39843 ft 487 kts 294°
2026-04-29 12:06 5.27599 94.69429 39847 ft 485 kts 294°
2026-04-29 12:06 5.30382 94.63263 39848 ft 488 kts 294°
2026-04-29 12:07 5.33179 94.57061 39853 ft 483 kts 295°
2026-04-29 12:07 5.35933 94.50956 39851 ft 483 kts 295°
2026-04-29 12:08 5.38709 94.44800 39852 ft 483 kts 295°
2026-04-29 12:08 5.41481 94.38650 39852 ft 482 kts 295°
2026-04-29 12:09 5.44242 94.32524 39851 ft 483 kts 295°
2026-04-29 12:09 5.47015 94.26366 39848 ft 484 kts 295°
2026-04-29 12:10 5.49323 94.21243 39856 ft 484 kts 295°
2026-04-29 12:10 5.52084 94.15111 39861 ft 484 kts 294°
2026-04-29 12:11 5.54857 94.08949 39857 ft 484 kts 294°
2026-04-29 12:11 5.57627 94.02791 39858 ft 483 kts 294°
2026-04-29 12:12 5.60396 93.96633 39859 ft 483 kts 294°
2026-04-29 12:12 5.63151 93.90505 39855 ft 483 kts 294°
2026-04-29 12:13 5.65917 93.84351 39856 ft 483 kts 294°
2026-04-29 12:13 5.68668 93.78230 39862 ft 483 kts 294°
2026-04-29 12:14 5.71426 93.72089 39858 ft 481 kts 294°
2026-04-29 12:14 5.74174 93.65969 39856 ft 479 kts 294°
2026-04-29 12:15 5.76915 93.59862 39856 ft 479 kts 294°
2026-04-29 12:15 5.79639 93.53792 39856 ft 479 kts 294°
2026-04-29 12:16 5.82389 93.47661 39858 ft 479 kts 294°
2026-04-29 12:16 5.85107 93.41598 39846 ft 478 kts 294°
2026-04-29 12:17 5.87841 93.35500 39833 ft 477 kts 294°
2026-04-29 12:17 5.90565 93.29420 39838 ft 477 kts 294°
2026-04-29 12:18 5.93271 93.23378 39854 ft 479 kts 294°
2026-04-29 12:18 5.96017 93.17248 39856 ft 481 kts 294°
2026-04-29 12:19 5.98760 93.11121 39854 ft 479 kts 294°
2026-04-29 12:19 6.01512 93.05000 39857 ft 480 kts 294°
2026-04-29 12:20 6.04276 92.98952 39852 ft 478 kts 294°
2026-04-29 12:20 6.07065 92.92851 39860 ft 479 kts 294°
2026-04-29 12:21 6.09833 92.86780 39858 ft 478 kts 294°
2026-04-29 12:21 6.12600 92.80707 39856 ft 476 kts 294°
2026-04-29 12:22 6.15363 92.74639 39856 ft 476 kts 294°
2026-04-29 12:22 6.18112 92.68602 39855 ft 478 kts 294°
2026-04-29 12:23 6.20869 92.62540 39856 ft 473 kts 295°
2026-04-29 12:23 6.23596 92.56546 39855 ft 474 kts 295°
2026-04-29 12:24 6.26342 92.50508 39857 ft 474 kts 295°
2026-04-29 12:24 6.29070 92.44508 39857 ft 474 kts 295°
2026-04-29 12:25 6.31815 92.38468 39857 ft 474 kts 295°
2026-04-29 12:26 6.35933 92.29401 39858 ft 474 kts 295°
2026-04-29 12:26 6.38659 92.23403 39860 ft 475 kts 294°
2026-04-29 12:27 6.41404 92.17351 39861 ft 475 kts 294°
2026-04-29 12:27 6.44133 92.11336 39861 ft 475 kts 294°
2026-04-29 12:28 6.46873 92.05296 39863 ft 474 kts 294°
2026-04-29 12:28 6.49601 91.99280 39856 ft 471 kts 294°
2026-04-29 12:29 6.52322 91.93275 39855 ft 472 kts 294°
2026-04-29 12:29 6.55035 91.87283 39855 ft 473 kts 294°
2026-04-29 12:30 6.57762 91.81266 39853 ft 472 kts 294°
2026-04-29 12:30 6.60470 91.75284 39858 ft 472 kts 294°
2026-04-29 12:31 6.63198 91.69254 39859 ft 472 kts 294°
2026-04-29 12:31 6.65910 91.63259 39857 ft 472 kts 294°
2026-04-29 12:32 6.68637 91.57228 39859 ft 473 kts 294°
2026-04-29 12:32 6.71351 91.51226 39856 ft 473 kts 294°
2026-04-29 12:33 6.74077 91.45195 39851 ft 473 kts 294°
2026-04-29 12:33 6.76804 91.39155 39856 ft 474 kts 294°
2026-04-29 12:34 6.79519 91.33141 39860 ft 474 kts 294°
2026-04-29 12:34 6.82249 91.27093 39860 ft 474 kts 294°
2026-04-29 12:35 6.84964 91.21076 39860 ft 473 kts 294°
2026-04-29 12:35 6.87673 91.15069 39857 ft 469 kts 294°
2026-04-29 12:36 6.90377 91.09070 39855 ft 474 kts 294°
2026-04-29 12:36 6.93105 91.03016 39860 ft 474 kts 294°
2026-04-29 12:37 6.95821 90.96988 39858 ft 474 kts 294°
2026-04-29 12:37 6.98548 90.90931 39863 ft 474 kts 294°
2026-04-29 12:38 7.01254 90.84917 39865 ft 474 kts 294°
2026-04-29 12:38 7.03979 90.78862 39862 ft 474 kts 294°
2026-04-29 12:39 7.06702 90.72809 39851 ft 475 kts 293°
2026-04-29 12:39 7.09423 90.66757 39850 ft 476 kts 293°
2026-04-29 12:40 7.12141 90.60707 39856 ft 477 kts 293°
2026-04-29 12:40 7.14880 90.54610 39859 ft 477 kts 293°
2026-04-29 12:41 7.17603 90.48544 39860 ft 477 kts 293°
2026-04-29 12:41 7.20349 90.42427 39866 ft 477 kts 293°
2026-04-29 12:42 7.23070 90.36363 39859 ft 474 kts 293°
2026-04-29 12:42 7.25778 90.30326 39862 ft 472 kts 293°
2026-04-29 12:43 7.28485 90.24286 39861 ft 473 kts 293°
2026-04-29 12:43 7.31178 90.18275 39861 ft 473 kts 293°
2026-04-29 12:44 7.33894 90.12211 39863 ft 473 kts 293°
2026-04-29 12:44 7.36582 90.06206 39864 ft 473 kts 293°
2026-04-29 12:45 7.39288 90.00158 39864 ft 473 kts 293°
2026-04-29 12:45 7.41993 89.94110 39858 ft 473 kts 293°
2026-04-29 12:46 7.44692 89.88075 39861 ft 473 kts 293°
2026-04-29 12:46 7.47384 89.82051 39862 ft 473 kts 293°
2026-04-29 12:47 7.50089 89.75998 39864 ft 473 kts 293°
2026-04-29 12:47 7.52780 89.69971 39863 ft 473 kts 293°
2026-04-29 12:48 7.55478 89.63925 39863 ft 473 kts 293°
2026-04-29 12:48 7.58184 89.57861 39863 ft 473 kts 293°
2026-04-29 12:49 7.60873 89.51833 39858 ft 473 kts 293°
2026-04-29 12:49 7.63568 89.45787 39867 ft 472 kts 293°
2026-04-29 12:50 7.66247 89.39776 39865 ft 472 kts 293°
2026-04-29 12:50 7.68940 89.33731 39861 ft 471 kts 293°
2026-04-29 12:51 7.71663 89.27700 39862 ft 471 kts 294°
2026-04-29 12:51 7.74403 89.21726 39853 ft 472 kts 294°
2026-04-29 12:52 7.77177 89.15661 39863 ft 476 kts 294°
2026-04-29 12:52 7.79936 89.09616 39863 ft 476 kts 294°
2026-04-29 12:53 7.82693 89.03572 39864 ft 476 kts 294°
2026-04-29 12:53 7.85462 88.97495 39866 ft 476 kts 294°
2026-04-29 12:54 7.88228 88.91425 39865 ft 476 kts 294°
2026-04-29 12:54 7.90974 88.85394 39863 ft 476 kts 294°
2026-04-29 12:55 7.93741 88.79315 39860 ft 476 kts 294°
2026-04-29 12:55 7.96506 88.73238 39860 ft 476 kts 294°
2026-04-29 12:56 7.99262 88.67178 39862 ft 477 kts 294°
2026-04-29 12:56 8.02030 88.61089 39861 ft 477 kts 294°
2026-04-29 12:57 8.04784 88.55028 39862 ft 477 kts 294°
2026-04-29 12:57 8.07551 88.48935 39864 ft 477 kts 294°
2026-04-29 12:58 8.10300 88.42877 39865 ft 476 kts 294°
2026-04-29 12:58 8.13065 88.36785 39863 ft 476 kts 294°
2026-04-29 12:59 8.15811 88.30730 39861 ft 476 kts 294°
2026-04-29 12:59 8.18557 88.24672 39861 ft 475 kts 294°
2026-04-29 13:00 8.21300 88.18619 39866 ft 475 kts 294°
2026-04-29 13:00 8.24052 88.12542 39863 ft 475 kts 294°
2026-04-29 13:01 8.26337 88.07495 39870 ft 475 kts 294°
2026-04-29 13:01 8.29077 88.01438 39861 ft 471 kts 294°
2026-04-29 13:02 8.31807 87.95402 39865 ft 472 kts 294°
2026-04-29 13:02 8.34536 87.89367 39862 ft 471 kts 293°
2026-04-29 13:03 8.37221 87.83426 39858 ft 465 kts 293°
2026-04-29 13:03 8.39900 87.77493 39860 ft 467 kts 293°
2026-04-29 13:04 8.42594 87.71525 39861 ft 467 kts 293°
2026-04-29 13:04 8.45288 87.65553 39856 ft 466 kts 293°
2026-04-29 13:05 8.47980 87.59585 39859 ft 466 kts 293°
2026-04-29 13:05 8.50656 87.53649 39855 ft 466 kts 293°
2026-04-29 13:06 8.53349 87.47671 39854 ft 466 kts 293°
2026-04-29 13:06 8.56026 87.41728 39856 ft 466 kts 293°
2026-04-29 13:07 8.58718 87.35747 39860 ft 466 kts 293°
2026-04-29 13:07 8.61409 87.29765 39866 ft 466 kts 293°
2026-04-29 13:08 8.64080 87.23825 39861 ft 466 kts 293°
2026-04-29 13:08 8.66759 87.17866 39863 ft 466 kts 293°
2026-04-29 13:09 8.69439 87.11901 39860 ft 465 kts 293°
2026-04-29 13:09 8.72099 87.05976 39856 ft 463 kts 294°
2026-04-29 13:10 8.74755 87.00058 39862 ft 461 kts 294°
2026-04-29 13:10 8.77398 86.94166 39858 ft 462 kts 294°
2026-04-29 13:11 8.80049 86.88250 39860 ft 463 kts 294°
2026-04-29 13:11 8.82715 86.82304 39860 ft 462 kts 294°
2026-04-29 13:12 8.85370 86.76377 39859 ft 462 kts 294°
2026-04-29 13:12 8.88008 86.70485 39858 ft 462 kts 294°
2026-04-29 13:13 8.90662 86.64556 39859 ft 462 kts 294°
2026-04-29 13:13 8.93305 86.58646 39856 ft 462 kts 294°
2026-04-29 13:14 8.95960 86.52708 39855 ft 463 kts 294°
2026-04-29 13:14 8.98617 86.46762 39854 ft 463 kts 294°
2026-04-29 13:15 9.01253 86.40858 39860 ft 463 kts 294°
2026-04-29 13:15 9.03911 86.34905 39864 ft 463 kts 294°
2026-04-29 13:16 9.06546 86.28998 39863 ft 463 kts 294°
2026-04-29 13:16 9.09193 86.23066 39861 ft 460 kts 294°
2026-04-29 13:17 9.11829 86.17150 39858 ft 460 kts 294°
2026-04-29 13:17 9.14445 86.11276 39859 ft 461 kts 294°
2026-04-29 13:18 9.17081 86.05354 39855 ft 460 kts 294°
2026-04-29 13:18 9.19715 85.99436 39862 ft 461 kts 294°
2026-04-29 13:19 9.22335 85.93549 39862 ft 461 kts 294°
2026-04-29 13:19 9.24966 85.87632 39862 ft 461 kts 294°
2026-04-29 13:20 9.27659 85.81736 39857 ft 461 kts 295°
2026-04-29 13:20 9.30388 85.75903 39857 ft 461 kts 295°
2026-04-29 13:21 9.33120 85.70032 39860 ft 461 kts 294°
2026-04-29 13:21 9.35845 85.64155 39859 ft 461 kts 294°
2026-04-29 13:22 9.38557 85.58300 39855 ft 461 kts 294°
2026-04-29 13:22 9.41286 85.52404 39856 ft 461 kts 294°
2026-04-29 13:23 9.43993 85.46556 39867 ft 460 kts 294°
2026-04-29 13:23 9.46691 85.40724 39855 ft 456 kts 294°
2026-04-29 13:24 9.49404 85.34854 39856 ft 459 kts 294°
2026-04-29 13:24 9.52100 85.29020 39853 ft 459 kts 294°
2026-04-29 13:25 9.54811 85.23150 39852 ft 459 kts 294°
2026-04-29 13:25 9.58852 85.14392 39853 ft 459 kts 294°
2026-04-29 13:26 9.61562 85.08518 39853 ft 459 kts 294°
2026-04-29 13:26 9.64246 85.02695 39850 ft 459 kts 294°
2026-04-29 13:27 9.66949 84.96826 39850 ft 459 kts 294°
2026-04-29 13:27 9.69644 84.90975 39853 ft 459 kts 294°
2026-04-29 13:28 9.72349 84.85099 39850 ft 459 kts 294°
2026-04-29 13:28 9.75055 84.79216 39853 ft 460 kts 294°
2026-04-29 13:29 9.77743 84.73369 39852 ft 460 kts 294°
2026-04-29 13:29 9.80444 84.67492 39846 ft 458 kts 294°
2026-04-29 13:30 9.83130 84.61643 39857 ft 456 kts 294°
2026-04-29 13:30 9.85799 84.55827 39854 ft 457 kts 294°
2026-04-29 13:31 9.88485 84.49971 39853 ft 457 kts 294°
2026-04-29 13:31 9.91162 84.44134 39853 ft 456 kts 294°
2026-04-29 13:32 9.93823 84.38326 39849 ft 457 kts 294°
2026-04-29 13:32 9.96508 84.32466 39848 ft 457 kts 294°
2026-04-29 13:33 9.99175 84.26639 39850 ft 457 kts 294°
2026-04-29 13:33 10.01858 84.20775 39848 ft 457 kts 294°
2026-04-29 13:34 10.04520 84.14954 39846 ft 457 kts 294°
2026-04-29 13:34 10.07199 84.09091 39850 ft 457 kts 294°
2026-04-29 13:35 10.09878 84.03226 39848 ft 457 kts 294°
2026-04-29 13:35 10.12541 83.97392 39850 ft 457 kts 294°
2026-04-29 13:36 10.15218 83.91526 39852 ft 457 kts 294°
2026-04-29 13:36 10.17882 83.85686 39844 ft 458 kts 294°
2026-04-29 13:37 10.20565 83.79797 39838 ft 459 kts 294°
2026-04-29 13:37 10.23231 83.73945 39837 ft 459 kts 294°
2026-04-29 13:38 10.25912 83.68055 39850 ft 459 kts 294°
2026-04-29 13:38 10.28594 83.62162 39850 ft 459 kts 294°
2026-04-29 13:39 10.31259 83.56301 39860 ft 459 kts 294°
2026-04-29 13:39 10.33941 83.50399 39848 ft 459 kts 294°
2026-04-29 13:40 10.36601 83.44542 39842 ft 459 kts 294°
2026-04-29 13:40 10.39280 83.38641 39848 ft 459 kts 294°
2026-04-29 13:41 10.41958 83.32739 39846 ft 458 kts 294°
2026-04-29 13:41 10.44609 83.26890 39843 ft 458 kts 294°
2026-04-29 13:42 10.47288 83.20980 39841 ft 458 kts 294°
2026-04-29 13:42 10.49947 83.15110 39846 ft 458 kts 294°
2026-04-29 13:43 10.52620 83.09211 39833 ft 459 kts 293°
2026-04-29 13:43 10.55276 83.03338 39836 ft 460 kts 293°
2026-04-29 13:44 10.57954 82.97414 39836 ft 460 kts 293°
2026-04-29 13:44 10.60615 82.91526 39837 ft 460 kts 293°
2026-04-29 13:45 10.63294 82.85596 39836 ft 460 kts 293°
2026-04-29 13:45 10.65957 82.79716 39837 ft 460 kts 293°
2026-04-29 13:46 10.68641 82.73801 39839 ft 460 kts 293°
2026-04-29 13:46 10.71322 82.67894 39834 ft 460 kts 293°
2026-04-29 13:47 10.73988 82.62013 39836 ft 459 kts 293°
2026-04-29 13:47 10.76667 82.56098 39837 ft 459 kts 293°
2026-04-29 13:48 10.79328 82.50217 39836 ft 459 kts 293°
2026-04-29 13:48 10.81985 82.44343 39836 ft 459 kts 293°
2026-04-29 13:49 10.84660 82.38425 39826 ft 459 kts 293°
2026-04-29 13:49 10.86876 82.33521 39841 ft 458 kts 293°
2026-04-29 13:50 10.89971 82.26667 39836 ft 457 kts 293°
2026-04-29 13:50 10.92184 82.21763 39837 ft 457 kts 293°
2026-04-29 13:51 10.94828 82.15900 39830 ft 457 kts 293°
2026-04-29 13:51 10.97484 82.10008 39830 ft 457 kts 293°
2026-04-29 13:52 11.00125 82.04145 39829 ft 457 kts 293°
2026-04-29 13:52 11.02774 81.98261 39830 ft 457 kts 293°
2026-04-29 13:53 11.05423 81.92373 39828 ft 457 kts 293°
2026-04-29 13:53 11.08078 81.86468 39829 ft 457 kts 293°
2026-04-29 13:54 11.10716 81.80606 39828 ft 457 kts 293°
2026-04-29 13:54 11.13361 81.74715 39832 ft 457 kts 293°
2026-04-29 13:55 11.15991 81.68850 39830 ft 457 kts 293°
2026-04-29 13:55 11.18641 81.62939 39835 ft 457 kts 293°
2026-04-29 13:56 11.21264 81.57088 39834 ft 456 kts 293°
2026-04-29 13:56 11.23902 81.51199 39835 ft 455 kts 293°
2026-04-29 13:57 11.26532 81.45324 39831 ft 455 kts 293°
2026-04-29 13:57 11.29139 81.39498 39826 ft 454 kts 293°
2026-04-29 13:58 11.31763 81.33628 39826 ft 454 kts 293°
2026-04-29 13:58 11.34384 81.27763 39828 ft 454 kts 293°
2026-04-29 13:59 11.37007 81.21886 39817 ft 455 kts 293°
2026-04-29 13:59 11.39615 81.16044 39822 ft 456 kts 293°
2026-04-29 14:00 11.42243 81.10152 39828 ft 456 kts 293°
2026-04-29 14:00 11.44858 81.04290 39827 ft 456 kts 293°
2026-04-29 14:01 11.47492 80.98389 39830 ft 456 kts 293°
2026-04-29 14:01 11.50120 80.92488 39827 ft 456 kts 293°
2026-04-29 14:02 11.52731 80.86619 39829 ft 456 kts 293°
2026-04-29 14:02 11.55361 80.80702 39830 ft 456 kts 293°
2026-04-29 14:03 11.57964 80.74842 39830 ft 456 kts 293°
2026-04-29 14:03 11.60583 80.68942 39828 ft 456 kts 293°
2026-04-29 14:04 11.63190 80.63067 39827 ft 456 kts 293°
2026-04-29 14:04 11.65810 80.57158 39823 ft 456 kts 293°
2026-04-29 14:05 11.68426 80.51254 39824 ft 455 kts 293°
2026-04-29 14:05 11.71019 80.45399 39825 ft 453 kts 293°
2026-04-29 14:06 11.73613 80.39537 39820 ft 454 kts 293°
2026-04-29 14:06 11.76201 80.33684 39820 ft 454 kts 293°
2026-04-29 14:07 11.78814 80.27772 39815 ft 455 kts 293°
2026-04-29 14:07 11.81394 80.21931 39818 ft 454 kts 293°
2026-04-29 14:08 11.83982 80.16072 39821 ft 453 kts 293°
2026-04-29 14:08 11.86580 80.10178 39817 ft 456 kts 293°
2026-04-29 14:09 11.89148 80.04292 39814 ft 455 kts 293°
2026-04-29 14:09 11.91721 79.98381 39810 ft 453 kts 293°
2026-04-29 14:10 11.94280 79.92509 39824 ft 454 kts 293°
2026-04-29 14:10 11.96858 79.86588 39784 ft 455 kts 293°
2026-04-29 14:11 11.99417 79.80709 39775 ft 455 kts 293°
2026-04-29 14:11 12.01995 79.74781 39775 ft 456 kts 293°
2026-04-29 14:12 12.04554 79.68894 39778 ft 455 kts 293°
2026-04-29 14:12 12.07128 79.62969 39797 ft 455 kts 293°
2026-04-29 14:13 12.09719 79.57052 39796 ft 455 kts 294°
2026-04-29 14:13 12.12402 79.51205 39798 ft 455 kts 294°
2026-04-29 14:14 12.15081 79.45364 39795 ft 455 kts 294°
2026-04-29 14:14 12.17763 79.39482 39793 ft 453 kts 294°
2026-04-29 14:15 12.20402 79.33680 39804 ft 451 kts 294°
2026-04-29 14:15 12.23055 79.27845 39799 ft 451 kts 294°
2026-04-29 14:16 12.25689 79.22047 39796 ft 451 kts 294°
2026-04-29 14:16 12.28340 79.16206 39796 ft 451 kts 294°
2026-04-29 14:17 12.30970 79.10410 39804 ft 451 kts 294°
2026-04-29 14:17 12.33613 79.04581 39800 ft 451 kts 294°
2026-04-29 14:18 12.36256 78.98746 39801 ft 451 kts 294°
2026-04-29 14:18 12.38879 78.92953 39804 ft 451 kts 294°
2026-04-29 14:19 12.41516 78.87126 39815 ft 451 kts 294°
2026-04-29 14:19 12.44139 78.81325 39822 ft 451 kts 294°
2026-04-29 14:20 12.46778 78.75486 39824 ft 451 kts 294°
2026-04-29 14:20 12.49398 78.69684 39824 ft 451 kts 294°
2026-04-29 14:21 12.52037 78.63834 39840 ft 451 kts 294°
2026-04-29 14:21 12.54659 78.58011 39838 ft 452 kts 295°
2026-04-29 14:22 12.57303 78.52143 39846 ft 453 kts 295°
2026-04-29 14:22 12.59932 78.46308 39848 ft 454 kts 295°
2026-04-29 14:23 12.62579 78.40426 39851 ft 454 kts 295°
2026-04-29 14:23 12.65208 78.34581 39872 ft 454 kts 295°
2026-04-29 14:24 12.67853 78.28697 39901 ft 454 kts 295°
2026-04-29 14:24 12.70495 78.22806 39923 ft 454 kts 295°
2026-04-29 14:25 12.73121 78.16951 39921 ft 454 kts 295°
2026-04-29 14:25 12.75770 78.11047 39919 ft 454 kts 295°
2026-04-29 14:26 12.78395 78.05190 39946 ft 454 kts 295°
2026-04-29 14:26 12.81036 77.99290 39963 ft 454 kts 295°
2026-04-29 14:27 12.83674 77.93395 39977 ft 455 kts 295°
2026-04-29 14:28 12.87627 77.84557 39987 ft 456 kts 295°
2026-04-29 14:28 12.90273 77.78635 39998 ft 456 kts 295°
2026-04-29 14:29 12.92896 77.72761 40000 ft 456 kts 295°
2026-04-29 14:29 12.95608 77.66880 39997 ft 455 kts 298°
2026-04-29 14:30 12.98660 77.61226 39997 ft 455 kts 299°
2026-04-29 14:30 13.01715 77.55530 39994 ft 455 kts 298°
2026-04-29 14:31 13.04755 77.49851 40000 ft 455 kts 298°
2026-04-29 14:31 13.07816 77.44127 40002 ft 455 kts 298°
2026-04-29 14:32 13.10850 77.38453 40002 ft 455 kts 298°
2026-04-29 14:32 13.13903 77.32738 40000 ft 455 kts 298°
2026-04-29 14:33 13.16932 77.27066 40000 ft 455 kts 298°
2026-04-29 14:33 13.19968 77.21382 39989 ft 455 kts 298°
2026-04-29 14:34 13.23014 77.15667 39988 ft 456 kts 298°
2026-04-29 14:34 13.26063 77.09942 39991 ft 456 kts 298°
2026-04-29 14:35 13.29106 77.04226 39986 ft 456 kts 298°
2026-04-29 14:35 13.32135 76.98533 39985 ft 456 kts 298°
2026-04-29 14:36 13.35184 76.92800 39982 ft 456 kts 298°
2026-04-29 14:36 13.38227 76.87073 39980 ft 456 kts 298°
2026-04-29 14:37 13.41253 76.81375 39969 ft 457 kts 298°
2026-04-29 14:37 13.44308 76.75617 39963 ft 458 kts 298°
2026-04-29 14:38 13.47344 76.69893 39966 ft 458 kts 298°
2026-04-29 14:38 13.49888 76.65090 39981 ft 459 kts 298°
2026-04-29 14:39 13.53447 76.58373 39957 ft 460 kts 298°
2026-04-29 14:39 13.55997 76.53552 39954 ft 461 kts 298°
2026-04-29 14:40 13.59558 76.46817 39944 ft 462 kts 298°
2026-04-29 14:40 13.62111 76.41987 39946 ft 463 kts 298°
2026-04-29 14:41 13.65197 76.36144 39944 ft 463 kts 298°
2026-04-29 14:41 13.68260 76.30339 39955 ft 464 kts 298°
2026-04-29 14:42 13.71345 76.24490 39954 ft 464 kts 298°
2026-04-29 14:42 13.74425 76.18646 39949 ft 464 kts 298°
2026-04-29 14:43 13.77483 76.12837 39957 ft 464 kts 298°
2026-04-29 14:43 13.80551 76.07007 39949 ft 460 kts 298°
2026-04-29 14:44 13.83613 76.01184 39936 ft 465 kts 298°
2026-04-29 14:44 13.86701 75.95308 39945 ft 465 kts 298°
2026-04-29 14:45 13.89767 75.89472 39936 ft 465 kts 298°
2026-04-29 14:45 13.92836 75.83622 39936 ft 465 kts 298°
2026-04-29 14:46 13.95916 75.77749 39924 ft 465 kts 299°
2026-04-29 14:46 13.98978 75.71898 39942 ft 464 kts 299°
2026-04-29 14:47 14.02048 75.66037 39927 ft 464 kts 299°
2026-04-29 14:47 14.05093 75.60218 39914 ft 465 kts 299°
2026-04-29 14:48 14.08163 75.54346 39925 ft 465 kts 299°
2026-04-29 14:48 14.11229 75.48466 39938 ft 464 kts 299°
2026-04-29 14:49 14.14278 75.42600 39912 ft 464 kts 299°
2026-04-29 14:49 14.17318 75.36750 39912 ft 465 kts 300°
2026-04-29 14:50 14.20369 75.30883 39911 ft 466 kts 299°
2026-04-29 14:50 14.23430 75.24983 39914 ft 466 kts 299°
2026-04-29 14:51 14.26493 75.19079 39912 ft 466 kts 300°
2026-04-29 14:51 14.29541 75.13201 39913 ft 466 kts 299°
2026-04-29 14:52 14.32602 75.07294 39910 ft 466 kts 299°
2026-04-29 14:52 14.35654 75.01402 39905 ft 468 kts 299°
2026-04-29 14:53 14.38720 74.95471 39919 ft 468 kts 299°
2026-04-29 14:53 14.41779 74.89553 39921 ft 469 kts 299°
2026-04-29 14:54 14.44835 74.83636 39902 ft 469 kts 299°
2026-04-29 14:54 14.47904 74.77689 39915 ft 469 kts 299°
2026-04-29 14:55 14.50990 74.71790 39922 ft 469 kts 300°
2026-04-29 14:55 14.54133 74.65884 39915 ft 469 kts 300°
2026-04-29 14:56 14.57266 74.59974 39894 ft 469 kts 300°
2026-04-29 14:56 14.60380 74.54085 39904 ft 469 kts 300°
2026-04-29 14:57 14.63503 74.48171 39877 ft 469 kts 300°
2026-04-29 14:57 14.66631 74.42242 39882 ft 469 kts 300°
2026-04-29 14:58 14.69731 74.36362 39888 ft 469 kts 300°
2026-04-29 14:58 14.72859 74.30426 39877 ft 469 kts 300°
2026-04-29 14:59 14.75963 74.24531 39875 ft 469 kts 300°
2026-04-29 14:59 14.79090 74.18588 39864 ft 469 kts 300°
2026-04-29 15:00 14.82210 74.12652 39856 ft 470 kts 300°
2026-04-29 15:00 14.85313 74.06745 39861 ft 469 kts 300°
2026-04-29 15:01 14.88429 74.00809 39865 ft 469 kts 300°
2026-04-29 15:01 14.91532 73.94894 39845 ft 470 kts 300°
2026-04-29 15:02 14.94651 73.88949 39846 ft 470 kts 300°
2026-04-29 15:02 14.97776 73.82989 39866 ft 470 kts 300°
2026-04-29 15:03 15.00879 73.77067 39864 ft 470 kts 300°
2026-04-29 15:03 15.03985 73.71117 39849 ft 470 kts 300°
2026-04-29 15:04 15.07098 73.65147 39853 ft 470 kts 300°
2026-04-29 15:04 15.10187 73.59227 39852 ft 470 kts 300°
2026-04-29 15:05 15.13304 73.53244 39858 ft 470 kts 300°
2026-04-29 15:05 15.16389 73.47318 39843 ft 470 kts 300°
2026-04-29 15:06 15.19499 73.41340 39841 ft 471 kts 300°
2026-04-29 15:06 15.22608 73.35357 39847 ft 471 kts 300°
2026-04-29 15:07 15.25695 73.29413 39844 ft 471 kts 300°
2026-04-29 15:07 15.28800 73.23429 39837 ft 471 kts 300°
2026-04-29 15:08 15.31906 73.17439 39847 ft 472 kts 300°
2026-04-29 15:08 15.35005 73.11457 39849 ft 472 kts 300°
2026-04-29 15:09 15.38093 73.05492 39854 ft 472 kts 300°
2026-04-29 15:09 15.41205 72.99476 39852 ft 472 kts 300°
2026-04-29 15:10 15.44290 72.93506 39850 ft 472 kts 300°
2026-04-29 15:10 15.47397 72.87490 39850 ft 473 kts 300°
2026-04-29 15:11 15.50485 72.81504 39855 ft 473 kts 300°
2026-04-29 15:11 15.53596 72.75471 39847 ft 473 kts 300°
2026-04-29 15:12 15.56704 72.69436 39851 ft 473 kts 300°
2026-04-29 15:12 15.59792 72.63437 39851 ft 473 kts 300°
2026-04-29 15:13 15.62902 72.57391 39847 ft 474 kts 300°
2026-04-29 15:13 15.65984 72.51390 39847 ft 474 kts 300°
2026-04-29 15:14 15.69088 72.45344 39848 ft 475 kts 300°
2026-04-29 15:14 15.72198 72.39283 39846 ft 475 kts 300°
2026-04-29 15:15 15.75287 72.33255 39850 ft 475 kts 300°
2026-04-29 15:15 15.78396 72.27185 39852 ft 475 kts 300°
2026-04-29 15:16 15.81481 72.21156 39842 ft 475 kts 300°
2026-04-29 15:16 15.84586 72.15082 39847 ft 476 kts 300°
2026-04-29 15:17 15.87697 72.08992 39848 ft 476 kts 300°
2026-04-29 15:17 15.90790 72.02931 39844 ft 476 kts 300°
2026-04-29 15:18 15.93896 71.96837 39847 ft 474 kts 300°
2026-04-29 15:18 15.96960 71.90823 39839 ft 472 kts 300°
2026-04-29 15:19 16.00031 71.84793 39843 ft 474 kts 300°
2026-04-29 15:19 16.03120 71.78719 39844 ft 474 kts 300°
2026-04-29 15:20 16.06202 71.72654 39842 ft 474 kts 300°
2026-04-29 15:20 16.09266 71.66621 39846 ft 474 kts 300°
2026-04-29 15:21 16.12381 71.60564 39842 ft 473 kts 301°
2026-04-29 15:21 16.15542 71.54555 39839 ft 473 kts 301°
2026-04-29 15:22 16.18684 71.48563 39841 ft 474 kts 301°
2026-04-29 15:22 16.21836 71.42528 39851 ft 474 kts 301°
2026-04-29 15:23 16.24983 71.36494 39853 ft 473 kts 301°
2026-04-29 15:23 16.28111 71.30494 39850 ft 472 kts 301°
2026-04-29 15:24 16.31230 71.24506 39846 ft 472 kts 301°
2026-04-29 15:24 16.34360 71.18491 39843 ft 472 kts 301°
2026-04-29 15:25 16.37489 71.12472 39847 ft 472 kts 301°
2026-04-29 15:25 16.40598 71.06489 39841 ft 471 kts 301°
2026-04-29 15:26 16.43722 71.00470 39844 ft 471 kts 301°
2026-04-29 15:26 16.46849 70.94440 39839 ft 471 kts 301°
2026-04-29 15:27 16.49951 70.88453 39848 ft 471 kts 301°
2026-04-29 15:27 16.53055 70.82457 39843 ft 469 kts 301°
2026-04-29 15:28 16.56171 70.76505 39846 ft 469 kts 301°
2026-04-29 15:28 16.58802 70.71494 39847 ft 469 kts 301°
2026-04-29 15:29 16.61914 70.65553 39847 ft 469 kts 301°
2026-04-29 15:30 16.68170 70.53582 39846 ft 469 kts 301°
2026-04-29 15:30 16.71279 70.47626 39845 ft 470 kts 301°
2026-04-29 15:31 16.74393 70.41653 39851 ft 470 kts 301°
2026-04-29 15:31 16.77523 70.35644 39850 ft 470 kts 301°
2026-04-29 15:32 16.80646 70.29645 39861 ft 469 kts 301°
2026-04-29 15:32 16.83750 70.23677 39859 ft 469 kts 301°
2026-04-29 15:33 16.86864 70.17684 39853 ft 469 kts 301°
2026-04-29 15:33 16.89953 70.11736 39851 ft 469 kts 301°
2026-04-29 15:34 16.93066 70.05734 39852 ft 469 kts 301°
2026-04-29 15:34 16.96177 69.99729 39856 ft 469 kts 301°
2026-04-29 15:35 16.99268 69.93760 39850 ft 469 kts 301°
2026-04-29 15:35 17.02360 69.87782 39853 ft 469 kts 301°
2026-04-29 15:36 17.05471 69.81765 39855 ft 469 kts 301°
2026-04-29 15:36 17.08568 69.75766 39861 ft 468 kts 301°
2026-04-29 15:37 17.11646 69.69800 39854 ft 468 kts 301°
2026-04-29 15:37 17.14737 69.63804 39854 ft 468 kts 301°
2026-04-29 15:38 17.17832 69.57794 39852 ft 467 kts 301°
2026-04-29 15:38 17.20905 69.51834 39854 ft 467 kts 301°
2026-04-29 15:39 17.24001 69.45868 39853 ft 468 kts 301°
2026-04-29 15:39 17.27107 69.39880 39854 ft 468 kts 301°
2026-04-29 15:40 17.30198 69.33909 39852 ft 468 kts 301°
2026-04-29 15:40 17.33299 69.27911 39853 ft 468 kts 301°
2026-04-29 15:41 17.36399 69.21910 39859 ft 467 kts 301°
2026-04-29 15:41 17.39474 69.15954 39850 ft 467 kts 301°
2026-04-29 15:42 17.42570 69.09952 39847 ft 467 kts 301°
2026-04-29 15:42 17.45636 69.03999 39851 ft 467 kts 301°
2026-04-29 15:43 17.48726 68.97997 39853 ft 467 kts 301°
2026-04-29 15:43 17.51818 68.91984 39850 ft 468 kts 301°
2026-04-29 15:44 17.54886 68.86013 39852 ft 468 kts 301°
2026-04-29 15:44 17.57978 68.79991 39849 ft 468 kts 301°
2026-04-29 15:45 17.61050 68.73999 39848 ft 469 kts 300°
2026-04-29 15:45 17.64137 68.67973 39850 ft 469 kts 300°
2026-04-29 15:46 17.67229 68.61933 39853 ft 469 kts 300°
2026-04-29 15:46 17.70304 68.55921 39851 ft 469 kts 300°
2026-04-29 15:47 17.73395 68.49872 39848 ft 470 kts 300°
2026-04-29 15:47 17.76484 68.43820 39851 ft 470 kts 300°
2026-04-29 15:48 17.79559 68.37789 39852 ft 470 kts 300°
2026-04-29 15:48 17.82646 68.31729 39852 ft 470 kts 300°
2026-04-29 15:49 17.85736 68.25658 39857 ft 470 kts 300°
2026-04-29 15:49 17.88805 68.19623 39866 ft 469 kts 300°
2026-04-29 15:50 17.91881 68.13569 39854 ft 470 kts 300°
2026-04-29 15:50 17.94938 68.07545 39849 ft 470 kts 300°
2026-04-29 15:51 17.98014 68.01479 39852 ft 470 kts 300°
2026-04-29 15:51 18.01070 67.95447 39854 ft 470 kts 300°
2026-04-29 15:52 18.04139 67.89381 39855 ft 470 kts 300°
2026-04-29 15:52 18.07213 67.83303 39856 ft 470 kts 300°
2026-04-29 15:53 18.10319 67.77285 39854 ft 470 kts 301°
2026-04-29 15:53 18.13494 67.71275 39864 ft 469 kts 301°
2026-04-29 15:54 18.16639 67.65295 39860 ft 468 kts 301°
2026-04-29 15:54 18.19790 67.59280 39853 ft 468 kts 301°
2026-04-29 15:55 18.22914 67.53306 39854 ft 468 kts 301°
2026-04-29 15:55 18.26057 67.47291 39847 ft 469 kts 301°
2026-04-29 15:56 18.29199 67.41270 39848 ft 469 kts 301°
2026-04-29 15:56 18.32345 67.35237 39852 ft 469 kts 301°
2026-04-29 15:57 18.35474 67.29231 39852 ft 469 kts 301°
2026-04-29 15:57 18.38601 67.23223 39863 ft 469 kts 301°
2026-04-29 15:58 18.41736 67.17195 39856 ft 468 kts 300°
2026-04-29 15:58 18.44852 67.11195 39853 ft 468 kts 300°
2026-04-29 15:59 18.47982 67.05165 39854 ft 468 kts 300°
2026-04-29 15:59 18.51107 66.99136 39853 ft 468 kts 300°
2026-04-29 16:00 18.54215 66.93134 39852 ft 468 kts 300°
2026-04-29 16:00 18.57345 66.87085 39841 ft 469 kts 300°
2026-04-29 16:01 18.60471 66.81040 39847 ft 469 kts 300°
2026-04-29 16:01 18.63595 66.74991 39858 ft 469 kts 300°
2026-04-29 16:02 18.66701 66.68971 39859 ft 469 kts 300°
2026-04-29 16:02 18.69816 66.62926 39857 ft 468 kts 300°
2026-04-29 16:03 18.72909 66.56919 39854 ft 468 kts 300°
2026-04-29 16:03 18.76020 66.50871 39851 ft 468 kts 300°
2026-04-29 16:04 18.79119 66.44841 39850 ft 469 kts 300°
2026-04-29 16:04 18.82230 66.38780 39851 ft 469 kts 300°
2026-04-29 16:05 18.85339 66.32718 39851 ft 469 kts 300°
2026-04-29 16:05 18.88426 66.26695 39852 ft 468 kts 300°
2026-04-29 16:06 18.91529 66.20629 39852 ft 468 kts 300°
2026-04-29 16:06 18.94633 66.14559 39849 ft 468 kts 300°
2026-04-29 16:07 18.97717 66.08522 39842 ft 468 kts 300°
2026-04-29 16:07 19.00798 66.02484 39842 ft 468 kts 300°
2026-04-29 16:08 19.03879 65.96442 39845 ft 468 kts 300°
2026-04-29 16:08 19.06973 65.90365 39832 ft 469 kts 300°
2026-04-29 16:09 19.10072 65.84272 39838 ft 469 kts 300°
2026-04-29 16:09 19.13146 65.78225 39849 ft 468 kts 300°
2026-04-29 16:10 19.16231 65.72150 39844 ft 468 kts 300°
2026-04-29 16:10 19.19292 65.66110 39841 ft 466 kts 300°
2026-04-29 16:11 19.22362 65.60052 39842 ft 467 kts 300°
2026-04-29 16:11 19.25419 65.54013 39845 ft 467 kts 300°
2026-04-29 16:12 19.28500 65.47923 39849 ft 469 kts 300°
2026-04-29 16:12 19.31575 65.41836 39850 ft 471 kts 299°
2026-04-29 16:13 19.34648 65.35742 39844 ft 467 kts 299°
2026-04-29 16:13 19.37689 65.29708 39838 ft 464 kts 299°
2026-04-29 16:14 19.40738 65.23656 39843 ft 468 kts 300°
2026-04-29 16:14 19.43794 65.17581 39843 ft 466 kts 299°
2026-04-29 16:15 19.46340 65.12514 39849 ft 468 kts 299°
2026-04-29 16:15 19.49896 65.05432 39841 ft 466 kts 300°
2026-04-29 16:16 19.52427 65.00387 39841 ft 465 kts 299°
2026-04-29 16:16 19.56035 64.93333 39833 ft 465 kts 300°
2026-04-29 16:17 19.59146 64.87320 39835 ft 467 kts 300°
2026-04-29 16:17 19.61735 64.82298 39835 ft 464 kts 300°
2026-04-29 16:18 19.64835 64.76271 39835 ft 464 kts 300°
2026-04-29 16:18 19.67919 64.70266 39837 ft 464 kts 300°
2026-04-29 16:19 19.70997 64.64268 39832 ft 464 kts 300°
2026-04-29 16:19 19.74100 64.58212 39837 ft 466 kts 300°
2026-04-29 16:20 19.77169 64.52214 39837 ft 464 kts 300°
2026-04-29 16:20 19.80240 64.46208 39835 ft 462 kts 300°
2026-04-29 16:21 19.83329 64.40165 39838 ft 465 kts 300°
2026-04-29 16:21 19.86415 64.34119 39831 ft 463 kts 299°
2026-04-29 16:22 19.89483 64.28098 39829 ft 464 kts 299°
2026-04-29 16:22 19.92554 64.22065 39833 ft 464 kts 300°
2026-04-29 16:23 19.95602 64.16074 39834 ft 462 kts 299°
2026-04-29 16:23 19.98677 64.10024 39835 ft 464 kts 299°
2026-04-29 16:24 20.01727 64.04015 39835 ft 464 kts 299°
2026-04-29 16:24 20.04796 63.97963 39828 ft 464 kts 299°
2026-04-29 16:25 20.07860 63.91914 39824 ft 463 kts 299°
2026-04-29 16:25 20.10907 63.85894 39819 ft 463 kts 299°
2026-04-29 16:26 20.13964 63.79846 39819 ft 463 kts 299°
2026-04-29 16:26 20.17003 63.73827 39825 ft 464 kts 299°
2026-04-29 16:27 20.20065 63.67757 39817 ft 464 kts 299°
2026-04-29 16:27 20.23115 63.61703 39823 ft 464 kts 299°
2026-04-29 16:28 20.26167 63.55640 39820 ft 464 kts 299°
2026-04-29 16:28 20.29204 63.49601 39817 ft 465 kts 299°
2026-04-29 16:29 20.32262 63.43510 39830 ft 465 kts 299°
2026-04-29 16:29 20.35317 63.37422 39849 ft 464 kts 299°
2026-04-29 16:30 20.38341 63.31387 39830 ft 464 kts 298°
2026-04-29 16:30 20.41369 63.25339 39818 ft 464 kts 298°
2026-04-29 16:31 20.44412 63.19253 39816 ft 464 kts 298°
2026-04-29 16:31 20.47435 63.13202 39817 ft 464 kts 298°
2026-04-29 16:32 20.50481 63.07098 39830 ft 464 kts 298°
2026-04-29 16:32 20.53494 63.01053 39827 ft 464 kts 298°
2026-04-29 16:33 20.58049 62.91901 39824 ft 466 kts 298°
2026-04-29 16:33 20.61060 62.85843 39826 ft 463 kts 298°
2026-04-29 16:34 20.64072 62.79780 39827 ft 464 kts 298°
2026-04-29 16:34 20.67098 62.73679 39822 ft 465 kts 298°
2026-04-29 16:35 20.70109 62.67598 39825 ft 467 kts 298°
2026-04-29 16:35 20.73156 62.61441 39823 ft 463 kts 298°
2026-04-29 16:36 20.76151 62.55383 39821 ft 461 kts 298°
2026-04-29 16:36 20.79135 62.49342 39819 ft 461 kts 297°
2026-04-29 16:37 20.82141 62.43247 39824 ft 462 kts 297°
2026-04-29 16:37 20.84650 62.38153 39819 ft 465 kts 297°
2026-04-29 16:38 20.88141 62.31061 39824 ft 463 kts 297°
2026-04-29 16:38 20.91113 62.25016 39819 ft 459 kts 297°
2026-04-29 16:39 20.94108 62.18917 39822 ft 465 kts 297°
2026-04-29 16:39 20.97126 62.12763 39823 ft 467 kts 297°
2026-04-29 16:40 21.00111 62.06672 39820 ft 461 kts 297°
2026-04-29 16:40 21.03097 62.00569 39813 ft 462 kts 297°
2026-04-29 16:41 21.06083 61.94459 39818 ft 463 kts 297°
2026-04-29 16:41 21.09064 61.88357 39817 ft 466 kts 297°
2026-04-29 16:42 21.12078 61.82177 39817 ft 467 kts 296°
2026-04-29 16:42 21.15057 61.76062 39817 ft 465 kts 296°
2026-04-29 16:43 21.18021 61.69919 39817 ft 464 kts 294°
2026-04-29 16:43 21.20152 61.63403 39810 ft 463 kts 283°
2026-04-29 16:44 21.21062 61.56574 39811 ft 462 kts 272°
2026-04-29 16:44 21.21228 61.49718 39812 ft 463 kts 271°
2026-04-29 16:45 21.21426 61.42816 39815 ft 463 kts 271°
2026-04-29 16:45 21.21618 61.35930 39819 ft 463 kts 271°
2026-04-29 16:46 21.21803 61.29023 39818 ft 463 kts 271°
2026-04-29 16:46 21.21983 61.22148 39819 ft 463 kts 271°
2026-04-29 16:47 21.22162 61.15227 39819 ft 463 kts 271°
2026-04-29 16:47 21.22337 61.08349 39817 ft 463 kts 271°
2026-04-29 16:48 21.22511 61.01437 39811 ft 463 kts 271°
2026-04-29 16:48 21.22681 60.94553 39817 ft 463 kts 271°
2026-04-29 16:49 21.22848 60.87635 39812 ft 463 kts 271°
2026-04-29 16:49 21.23012 60.80763 39816 ft 463 kts 271°
2026-04-29 16:50 21.23174 60.73852 39810 ft 463 kts 271°
2026-04-29 16:50 21.23333 60.66978 39813 ft 463 kts 271°
2026-04-29 16:51 21.23489 60.60058 39813 ft 463 kts 271°
2026-04-29 16:51 21.23642 60.53191 39818 ft 463 kts 271°
2026-04-29 16:52 21.23767 60.47450 39818 ft 463 kts 271°
2026-04-29 16:52 21.23940 60.39368 39814 ft 463 kts 271°
2026-04-29 16:53 21.24084 60.32503 39813 ft 462 kts 271°
2026-04-29 16:53 21.24226 60.25602 39814 ft 462 kts 271°
2026-04-29 16:54 21.24365 60.18751 39813 ft 462 kts 271°
2026-04-29 16:54 21.24502 60.11850 39810 ft 462 kts 270°
2026-04-29 16:55 21.24631 60.04986 39814 ft 462 kts 270°
2026-04-29 16:55 21.24758 59.98118 39814 ft 462 kts 270°
2026-04-29 16:56 21.24884 59.91214 39812 ft 462 kts 270°
2026-04-29 16:56 21.25007 59.84309 39814 ft 462 kts 270°
2026-04-29 16:57 21.25126 59.77453 39808 ft 462 kts 270°
2026-04-29 16:57 21.25243 59.70543 39808 ft 462 kts 270°
2026-04-29 16:58 21.25357 59.63675 39813 ft 462 kts 270°
2026-04-29 16:58 21.25469 59.56778 39810 ft 462 kts 270°
2026-04-29 16:59 21.25578 59.49866 39810 ft 462 kts 270°
2026-04-29 16:59 21.25683 59.43005 39807 ft 462 kts 270°
2026-04-29 17:00 21.25786 59.36113 39811 ft 462 kts 270°
2026-04-29 17:00 21.25886 59.29258 39806 ft 462 kts 270°
2026-04-29 17:01 21.25984 59.22355 39801 ft 463 kts 270°
2026-04-29 17:01 21.26079 59.15437 39803 ft 463 kts 270°
2026-04-29 17:02 21.26170 59.08556 39815 ft 462 kts 270°
2026-04-29 17:02 21.26260 59.01656 39812 ft 462 kts 270°
2026-04-29 17:03 21.26346 58.94796 39808 ft 461 kts 270°
2026-04-29 17:03 21.26429 58.87924 39806 ft 461 kts 270°
2026-04-29 17:04 21.26727 58.81093 39797 ft 462 kts 276°
2026-04-29 17:04 21.27702 58.75449 39798 ft 463 kts 283°
2026-04-29 17:05 21.29572 58.68824 39796 ft 463 kts 286°
2026-04-29 17:05 21.31781 58.61130 39796 ft 463 kts 285°
2026-04-29 17:06 21.33351 58.55636 39793 ft 463 kts 285°
2026-04-29 17:06 21.35238 58.49034 39794 ft 463 kts 285°
2026-04-29 17:07 21.37130 58.42408 39789 ft 463 kts 285°
2026-04-29 17:07 21.39008 58.35817 39789 ft 463 kts 285°
2026-04-29 17:08 21.40894 58.29185 39791 ft 463 kts 285°
2026-04-29 17:08 21.42771 58.22579 39786 ft 463 kts 285°
2026-04-29 17:09 21.44637 58.16000 39781 ft 463 kts 285°
2026-04-29 17:09 21.46516 58.09364 39782 ft 463 kts 285°
2026-04-29 17:10 21.48388 58.02742 39776 ft 463 kts 285°
2026-04-29 17:10 21.50249 57.96145 39776 ft 463 kts 285°
2026-04-29 17:11 21.52118 57.89511 39769 ft 464 kts 285°
2026-04-29 17:11 21.53977 57.82903 39772 ft 464 kts 285°
2026-04-29 17:12 21.55847 57.76244 39782 ft 464 kts 285°
2026-04-29 17:12 21.57400 57.70706 39788 ft 464 kts 285°
2026-04-29 17:13 21.59563 57.62979 39775 ft 463 kts 285°
2026-04-29 17:13 21.61404 57.56372 39775 ft 464 kts 285°
2026-04-29 17:14 21.63257 57.49716 39778 ft 464 kts 285°
2026-04-29 17:14 21.65110 57.43051 39779 ft 464 kts 285°
2026-04-29 17:15 21.66950 57.36423 39778 ft 464 kts 284°
2026-04-29 17:15 21.68799 57.29747 39779 ft 465 kts 284°
2026-04-29 17:16 21.70644 57.23076 39779 ft 465 kts 284°
2026-04-29 17:16 21.72478 57.16434 39780 ft 465 kts 284°
2026-04-29 17:17 21.74320 57.09743 39784 ft 465 kts 284°
2026-04-29 17:17 21.76151 57.03080 39779 ft 466 kts 284°
2026-04-29 17:18 21.77988 56.96382 39779 ft 466 kts 284°
2026-04-29 17:18 21.79814 56.89712 39780 ft 466 kts 284°
2026-04-29 17:19 21.81638 56.83044 39783 ft 466 kts 284°
2026-04-29 17:19 21.83471 56.76327 39782 ft 467 kts 284°
2026-04-29 17:20 21.85300 56.69614 39778 ft 467 kts 284°
2026-04-29 17:20 21.87128 56.62895 39787 ft 466 kts 284°
2026-04-29 17:21 21.88938 56.56230 39783 ft 466 kts 284°
2026-04-29 17:21 21.90756 56.49528 39780 ft 466 kts 284°
2026-04-29 17:22 21.92571 56.42821 39783 ft 466 kts 284°
2026-04-29 17:22 21.94373 56.36150 39779 ft 465 kts 284°
2026-04-29 17:23 21.96180 56.29443 39772 ft 465 kts 284°
2026-04-29 17:23 21.97985 56.22727 39772 ft 466 kts 283°
2026-04-29 17:24 21.99772 56.16058 39780 ft 466 kts 283°
2026-04-29 17:24 22.01573 56.09333 39786 ft 465 kts 283°
2026-04-29 17:25 22.03370 56.02617 39780 ft 465 kts 283°
2026-04-29 17:25 22.05158 55.95953 39780 ft 464 kts 283°
2026-04-29 17:26 22.06953 55.89250 39771 ft 464 kts 283°
2026-04-29 17:26 22.08733 55.82584 39769 ft 464 kts 283°
2026-04-29 17:27 22.10515 55.75903 39772 ft 464 kts 283°
2026-04-29 17:27 22.12299 55.69201 39772 ft 464 kts 283°
2026-04-29 17:28 22.14073 55.62524 39772 ft 464 kts 283°
2026-04-29 17:28 22.15662 55.55766 39771 ft 461 kts 277°
2026-04-29 17:29 22.16424 55.48949 39771 ft 459 kts 273°
2026-04-29 17:29 22.16968 55.43249 39770 ft 459 kts 273°
2026-04-29 17:30 22.17752 55.35231 39771 ft 459 kts 273°
2026-04-29 17:30 22.18417 55.28400 39770 ft 459 kts 273°
2026-04-29 17:31 22.19082 55.21538 39764 ft 459 kts 273°
2026-04-29 17:31 22.19742 55.14676 39774 ft 459 kts 273°
2026-04-29 17:32 22.20392 55.07860 39769 ft 459 kts 273°
2026-04-29 17:32 22.21047 55.00986 39776 ft 459 kts 273°
2026-04-29 17:33 22.21697 54.94172 39770 ft 459 kts 273°
2026-04-29 17:33 22.22346 54.87291 39769 ft 459 kts 273°
2026-04-29 17:34 22.22983 54.80468 39772 ft 459 kts 272°
2026-04-29 17:34 22.23619 54.73606 39775 ft 458 kts 272°
2026-04-29 17:35 22.24574 54.63348 39767 ft 457 kts 272°
2026-04-29 17:36 22.25202 54.56550 39763 ft 457 kts 272°
2026-04-29 17:36 22.25831 54.49710 39769 ft 457 kts 272°
2026-04-29 17:37 22.26459 54.42871 39759 ft 457 kts 272°
2026-04-29 17:37 22.27080 54.36077 39759 ft 457 kts 272°
2026-04-29 17:38 22.27701 54.29239 39770 ft 457 kts 272°
2026-04-29 17:38 22.28319 54.22396 39770 ft 457 kts 272°
2026-04-29 17:39 22.28930 54.15608 39762 ft 457 kts 272°
2026-04-29 17:39 22.29542 54.08750 39764 ft 457 kts 272°
2026-04-29 17:40 22.30147 54.01936 39780 ft 457 kts 272°
2026-04-29 17:40 22.30751 53.95101 39773 ft 456 kts 272°
2026-04-29 17:41 22.31348 53.88318 39771 ft 455 kts 272°
2026-04-29 17:41 22.31947 53.81494 39771 ft 455 kts 272°
2026-04-29 17:42 22.32537 53.74722 39769 ft 455 kts 272°
2026-04-29 17:42 22.33130 53.67893 39774 ft 455 kts 272°
2026-04-29 17:43 22.33714 53.61125 39761 ft 455 kts 272°
2026-04-29 17:43 22.34304 53.54315 39757 ft 455 kts 272°
2026-04-29 17:44 22.34889 53.47492 39761 ft 455 kts 272°
2026-04-29 17:44 22.35463 53.40715 39769 ft 455 kts 272°
2026-04-29 17:45 22.36039 53.33891 39770 ft 455 kts 272°
2026-04-29 17:45 22.36615 53.27056 39771 ft 455 kts 272°
2026-04-29 17:46 22.37183 53.20272 39777 ft 454 kts 272°
2026-04-29 17:46 22.37748 53.13517 39779 ft 453 kts 272°
2026-04-29 17:47 22.38311 53.06729 39769 ft 452 kts 272°
2026-04-29 17:47 22.38871 52.99951 39768 ft 452 kts 272°
2026-04-29 17:48 22.39424 52.93214 39773 ft 452 kts 272°
2026-04-29 17:48 22.39978 52.86436 39772 ft 452 kts 272°
2026-04-29 17:49 22.40526 52.79691 39764 ft 452 kts 272°
2026-04-29 17:49 22.41074 52.72908 39769 ft 452 kts 272°
2026-04-29 17:50 22.41619 52.66131 39775 ft 452 kts 272°
2026-04-29 17:50 22.42158 52.59389 39787 ft 452 kts 272°
2026-04-29 17:51 22.42697 52.52618 39778 ft 451 kts 272°
2026-04-29 17:51 22.43142 52.46990 39787 ft 450 kts 272°
2026-04-29 17:52 22.43761 52.39141 39779 ft 450 kts 272°
2026-04-29 17:52 22.44200 52.33533 39789 ft 450 kts 272°
2026-04-29 17:53 22.44727 52.26778 39781 ft 449 kts 272°
2026-04-29 17:53 22.45246 52.20083 39786 ft 449 kts 272°
2026-04-29 17:54 22.45765 52.13345 39779 ft 448 kts 272°
2026-04-29 17:54 22.46278 52.06655 39789 ft 448 kts 272°
2026-04-29 17:55 22.46791 51.99930 39782 ft 448 kts 272°
2026-04-29 17:55 22.47298 51.93247 39783 ft 448 kts 272°
2026-04-29 17:56 22.47808 51.86495 39783 ft 448 kts 272°
2026-04-29 17:56 22.48311 51.79792 39785 ft 448 kts 272°
2026-04-29 17:57 22.48810 51.73106 39803 ft 447 kts 272°
2026-04-29 17:57 22.49308 51.66398 39798 ft 446 kts 272°
2026-04-29 17:58 22.49799 51.59741 39797 ft 446 kts 272°
2026-04-29 17:58 22.50290 51.53046 39797 ft 446 kts 271°
2026-04-29 17:59 22.50780 51.46339 39798 ft 446 kts 271°
2026-04-29 17:59 22.51263 51.39676 39795 ft 446 kts 271°
2026-04-29 18:00 22.51744 51.33009 39804 ft 446 kts 271°
2026-04-29 18:00 22.52225 51.26307 39803 ft 445 kts 271°
2026-04-29 18:01 22.52700 51.19645 39804 ft 445 kts 271°
2026-04-29 18:01 22.53171 51.12997 39800 ft 445 kts 271°
2026-04-29 18:02 22.53643 51.06299 39810 ft 445 kts 271°
2026-04-29 18:02 22.54109 50.99648 39812 ft 444 kts 271°
2026-04-29 18:03 22.54570 50.93019 39805 ft 443 kts 271°
2026-04-29 18:03 22.55032 50.86350 39809 ft 443 kts 271°
2026-04-29 18:04 22.55488 50.79725 39807 ft 443 kts 271°
2026-04-29 18:04 22.55943 50.73070 39803 ft 442 kts 271°
2026-04-29 18:05 22.56392 50.66468 39803 ft 442 kts 271°
2026-04-29 18:05 22.56841 50.59806 39792 ft 443 kts 271°
2026-04-29 18:06 22.57286 50.53192 39799 ft 443 kts 271°
2026-04-29 18:06 22.57730 50.46533 39799 ft 443 kts 271°
2026-04-29 18:07 22.58172 50.39862 39791 ft 444 kts 271°
2026-04-29 18:07 22.58610 50.33200 39793 ft 445 kts 271°
2026-04-29 18:08 22.59048 50.26531 39793 ft 446 kts 271°
2026-04-29 18:08 22.59484 50.19822 39797 ft 446 kts 271°
2026-04-29 18:09 22.59915 50.13153 39797 ft 447 kts 271°
2026-04-29 18:09 22.60348 50.06421 39796 ft 447 kts 271°
2026-04-29 18:10 22.60775 49.99729 39795 ft 447 kts 271°
2026-04-29 18:10 22.61201 49.93001 39792 ft 448 kts 271°
2026-04-29 18:11 22.61626 49.86254 39791 ft 449 kts 271°
2026-04-29 18:11 22.62047 49.79532 39802 ft 449 kts 271°
2026-04-29 18:12 22.62464 49.72818 39786 ft 450 kts 271°
2026-04-29 18:12 22.62882 49.66046 39804 ft 450 kts 271°
2026-04-29 18:13 22.63296 49.59300 39800 ft 447 kts 271°
2026-04-29 18:13 22.63703 49.52602 39790 ft 448 kts 271°
2026-04-29 18:14 22.64109 49.45864 39796 ft 452 kts 271°
2026-04-29 18:14 22.64517 49.39080 39800 ft 450 kts 271°
2026-04-29 18:15 22.64921 49.32299 39807 ft 450 kts 271°
2026-04-29 18:15 22.65320 49.25553 39795 ft 451 kts 271°
2026-04-29 18:16 22.65718 49.18777 39795 ft 451 kts 271°
2026-04-29 18:16 22.66112 49.12018 39799 ft 451 kts 271°
2026-04-29 18:17 22.66507 49.05215 39805 ft 451 kts 271°
2026-04-29 18:17 22.66896 48.98454 39810 ft 451 kts 271°
2026-04-29 18:18 22.67280 48.91713 39811 ft 450 kts 271°
2026-04-29 18:18 22.67664 48.84936 39808 ft 450 kts 271°
2026-04-29 18:19 22.68042 48.78195 39814 ft 450 kts 271°
2026-04-29 18:19 22.68420 48.71419 39809 ft 450 kts 271°
2026-04-29 18:20 22.68795 48.64654 39809 ft 449 kts 271°
2026-04-29 18:20 22.69164 48.57933 39807 ft 450 kts 271°
2026-04-29 18:21 22.69534 48.51150 39809 ft 450 kts 271°
2026-04-29 18:21 22.69898 48.44415 39809 ft 450 kts 271°
2026-04-29 18:22 22.70262 48.37641 39804 ft 450 kts 270°
2026-04-29 18:22 22.70623 48.30860 39817 ft 449 kts 270°
2026-04-29 18:23 22.70978 48.24136 39813 ft 449 kts 270°
2026-04-29 18:23 22.71333 48.17355 39811 ft 449 kts 270°
2026-04-29 18:24 22.71683 48.10629 39809 ft 448 kts 270°
2026-04-29 18:24 22.72031 48.03877 39811 ft 448 kts 270°
2026-04-29 18:25 22.72374 47.97163 39820 ft 448 kts 270°
2026-04-29 18:25 22.72716 47.90423 39817 ft 447 kts 270°
2026-04-29 18:26 22.73053 47.83721 39817 ft 447 kts 270°
2026-04-29 18:26 22.73389 47.76975 39831 ft 447 kts 270°
2026-04-29 18:27 22.73722 47.70253 39828 ft 446 kts 270°
2026-04-29 18:27 22.74050 47.63568 39828 ft 446 kts 270°
2026-04-29 18:28 22.74376 47.56853 39835 ft 445 kts 270°
2026-04-29 18:28 22.74699 47.50182 39845 ft 445 kts 270°
2026-04-29 18:29 22.75022 47.43479 39846 ft 445 kts 270°
2026-04-29 18:29 22.75342 47.36773 39840 ft 445 kts 270°
2026-04-29 18:30 22.75659 47.30072 39858 ft 445 kts 270°
2026-04-29 18:30 22.75972 47.23403 39862 ft 445 kts 269°
2026-04-29 18:31 22.76285 47.16710 39864 ft 445 kts 270°
2026-04-29 18:31 22.76786 47.10019 39863 ft 446 kts 272°
2026-04-29 18:32 22.77353 47.03329 39880 ft 445 kts 272°
2026-04-29 18:32 22.78153 46.93318 39877 ft 445 kts 271°
2026-04-29 18:33 22.78671 46.86681 39875 ft 444 kts 271°
2026-04-29 18:33 22.79192 46.79982 39886 ft 444 kts 271°
2026-04-29 18:34 22.79535 46.75555 39885 ft 444 kts 271°
2026-04-29 18:34 22.80220 46.66663 39884 ft 444 kts 271°
2026-04-29 18:35 22.80728 46.60013 39893 ft 444 kts 271°
2026-04-29 18:35 22.81237 46.53326 39897 ft 444 kts 271°
2026-04-29 18:36 22.81743 46.46636 39911 ft 444 kts 271°
2026-04-29 18:36 22.82240 46.40039 39897 ft 441 kts 271°
2026-04-29 18:37 22.82734 46.33399 39900 ft 441 kts 271°
2026-04-29 18:37 22.83224 46.26768 39895 ft 441 kts 271°
2026-04-29 18:38 22.83710 46.20175 39889 ft 441 kts 271°
2026-04-29 18:38 22.84195 46.13533 39887 ft 441 kts 271°
2026-04-29 18:39 22.84676 46.06927 39881 ft 441 kts 271°
2026-04-29 18:39 22.85156 46.00286 39873 ft 441 kts 271°
2026-04-29 18:40 22.85633 45.93650 39882 ft 441 kts 271°
2026-04-29 18:40 22.86026 45.88164 39866 ft 435 kts 271°
2026-04-29 18:41 22.86955 45.75066 39861 ft 436 kts 271°
2026-04-29 18:42 22.87417 45.68498 39864 ft 436 kts 271°
2026-04-29 18:42 22.87872 45.61974 39864 ft 436 kts 271°
2026-04-29 18:43 22.88329 45.55403 39864 ft 436 kts 271°
2026-04-29 18:43 22.88783 45.48827 39868 ft 436 kts 271°
2026-04-29 18:44 22.89234 45.42262 39867 ft 436 kts 271°
2026-04-29 18:44 22.89680 45.35727 39880 ft 436 kts 271°
2026-04-29 18:45 22.90124 45.29196 39867 ft 432 kts 270°
2026-04-29 18:45 22.90562 45.22673 39870 ft 433 kts 270°
2026-04-29 18:46 22.90996 45.16195 39870 ft 433 kts 270°
2026-04-29 18:46 22.91428 45.09708 39870 ft 433 kts 270°
2026-04-29 18:47 22.91859 45.03194 39874 ft 433 kts 270°
2026-04-29 18:47 22.92284 44.96695 39881 ft 433 kts 270°
2026-04-29 18:48 22.92709 44.90168 39882 ft 433 kts 270°
2026-04-29 18:48 22.93131 44.83651 39884 ft 433 kts 270°
2026-04-29 18:49 22.93548 44.77166 39884 ft 433 kts 270°
2026-04-29 18:49 22.94006 44.70641 39883 ft 434 kts 273°
2026-04-29 18:50 22.95151 44.64171 39886 ft 438 kts 281°
2026-04-29 18:50 22.97037 44.57877 39890 ft 440 kts 284°
2026-04-29 18:51 22.98977 44.51606 39892 ft 440 kts 284°
2026-04-29 18:51 23.00919 44.45294 39890 ft 439 kts 284°
2026-04-29 18:52 23.02859 44.38988 39901 ft 439 kts 283°
2026-04-29 18:52 23.04785 44.32720 39896 ft 439 kts 283°
2026-04-29 18:53 23.06718 44.26420 39893 ft 438 kts 283°
2026-04-29 18:53 23.08639 44.20148 39904 ft 438 kts 283°
2026-04-29 18:54 23.10552 44.13896 39905 ft 438 kts 283°
2026-04-29 18:54 23.12471 44.07608 39902 ft 438 kts 283°
2026-04-29 18:55 23.14377 44.01356 39912 ft 438 kts 283°
2026-04-29 18:55 23.16295 43.95061 39918 ft 437 kts 283°
2026-04-29 18:56 23.18191 43.88817 39917 ft 437 kts 283°
2026-04-29 18:56 23.20094 43.82544 39925 ft 436 kts 283°
2026-04-29 18:57 23.21994 43.76273 39918 ft 436 kts 283°
2026-04-29 18:57 23.23877 43.70048 39926 ft 436 kts 283°
2026-04-29 18:58 23.25772 43.63771 39932 ft 436 kts 283°
2026-04-29 18:58 23.27663 43.57502 39944 ft 435 kts 283°
2026-04-29 18:59 23.29548 43.51240 39944 ft 435 kts 283°
2026-04-29 18:59 23.31416 43.45025 39951 ft 435 kts 283°
2026-04-29 19:00 23.33300 43.38746 39964 ft 435 kts 283°
2026-04-29 19:00 23.35164 43.32525 39969 ft 434 kts 283°
2026-04-29 19:01 23.37036 43.26268 39974 ft 434 kts 283°
2026-04-29 19:01 23.38907 43.20002 39963 ft 434 kts 282°
2026-04-29 19:02 23.40457 43.14804 39986 ft 433 kts 282°
2026-04-29 19:02 23.42615 43.07543 39991 ft 433 kts 282°
2026-04-29 19:03 23.44472 43.01278 39996 ft 434 kts 282°
2026-04-29 19:03 23.46316 42.95048 39994 ft 434 kts 282°
2026-04-29 19:04 23.48165 42.88790 39988 ft 433 kts 282°
2026-04-29 19:04 23.50015 42.82520 39994 ft 434 kts 282°
2026-04-29 19:05 23.51852 42.76284 39985 ft 433 kts 282°
2026-04-29 19:05 23.53686 42.70060 39989 ft 433 kts 282°
2026-04-29 19:06 23.55535 42.63780 39991 ft 433 kts 282°
2026-04-29 19:07 23.58289 42.54404 39987 ft 434 kts 282°
2026-04-29 19:07 23.60118 42.48167 39988 ft 433 kts 282°
2026-04-29 19:08 23.61957 42.41884 39986 ft 433 kts 282°
2026-04-29 19:08 23.63788 42.35617 39988 ft 433 kts 282°
2026-04-29 19:09 23.65609 42.29374 39990 ft 433 kts 282°
2026-04-29 19:09 23.67434 42.23093 39986 ft 433 kts 282°
2026-04-29 19:10 23.69239 42.16860 39994 ft 433 kts 282°
2026-04-29 19:10 23.71057 42.10576 39995 ft 433 kts 282°
2026-04-29 19:11 23.72867 42.04307 39995 ft 432 kts 282°
2026-04-29 19:11 23.74669 41.98059 40001 ft 432 kts 282°
2026-04-29 19:12 23.76471 41.91823 39997 ft 432 kts 282°
2026-04-29 19:12 23.78273 41.85587 39995 ft 431 kts 282°
2026-04-29 19:13 23.80079 41.79322 39991 ft 431 kts 282°
2026-04-29 19:13 23.81864 41.73114 39999 ft 430 kts 282°
2026-04-29 19:14 23.83657 41.66863 39997 ft 430 kts 282°
2026-04-29 19:14 23.85437 41.60650 39993 ft 429 kts 282°
2026-04-29 19:15 23.87217 41.54424 40000 ft 429 kts 282°
2026-04-29 19:15 23.88986 41.48198 39995 ft 428 kts 282°
2026-04-29 19:16 23.90742 41.42005 39991 ft 428 kts 282°
2026-04-29 19:16 23.92505 41.35778 39988 ft 428 kts 282°
2026-04-29 19:17 23.94269 41.29556 39893 ft 428 kts 282°
2026-04-29 19:17 23.95142 41.26477 39663 ft 428 kts 282°
2026-04-29 19:17 23.96028 41.23348 39428 ft 428 kts 282°
2026-04-29 19:17 23.96900 41.20268 39199 ft 428 kts 282°
2026-04-29 19:18 23.97782 41.17148 38977 ft 429 kts 282°
2026-04-29 19:18 23.98368 41.15071 38819 ft 430 kts 282°
2026-04-29 19:18 23.99552 41.10876 38513 ft 430 kts 282°
2026-04-29 19:18 24.00422 41.07791 38256 ft 429 kts 282°
2026-04-29 19:19 24.01304 41.04663 37990 ft 429 kts 282°
2026-04-29 19:19 24.02183 41.01540 37729 ft 428 kts 282°
2026-04-29 19:19 24.03053 40.98449 37480 ft 428 kts 282°
2026-04-29 19:19 24.03932 40.95320 37225 ft 428 kts 282°
2026-04-29 19:20 24.04807 40.92201 36970 ft 427 kts 282°
2026-04-29 19:20 24.05678 40.89098 36737 ft 426 kts 282°
2026-04-29 19:20 24.06535 40.86044 36446 ft 421 kts 282°
2026-04-29 19:20 24.07392 40.82987 35865 ft 418 kts 282°
2026-04-29 19:21 24.08244 40.79945 35127 ft 417 kts 282°
2026-04-29 19:21 24.09092 40.76911 34347 ft 414 kts 282°
2026-04-29 19:21 24.09933 40.73898 33417 ft 412 kts 282°
2026-04-29 19:21 24.10760 40.70927 32244 ft 416 kts 282°
2026-04-29 19:22 24.11609 40.67866 30945 ft 423 kts 282°
2026-04-29 19:22 24.12468 40.64776 29997 ft 424 kts 282°
2026-04-29 19:22 24.13326 40.61699 29097 ft 418 kts 283°
2026-04-29 19:22 24.14161 40.58706 28293 ft 412 kts 283°
2026-04-29 19:23 24.15004 40.55730 27444 ft 407 kts 285°
2026-04-29 19:23 24.16073 40.52861 26625 ft 406 kts 291°
2026-04-29 19:23 24.17436 40.50155 25836 ft 404 kts 297°
2026-04-29 19:23 24.19061 40.47644 25076 ft 403 kts 303°
2026-04-29 19:24 24.20859 40.45300 24331 ft 399 kts 305°
2026-04-29 19:24 24.22635 40.42979 23588 ft 394 kts 305°
2026-04-29 19:24 24.24355 40.40714 22725 ft 389 kts 306°
2026-04-29 19:24 24.26084 40.38430 21808 ft 385 kts 306°
2026-04-29 19:25 24.27791 40.36172 20927 ft 382 kts 306°
2026-04-29 19:25 24.29482 40.33936 20014 ft 379 kts 307°
2026-04-29 19:25 24.31137 40.31747 19145 ft 375 kts 307°
2026-04-29 19:25 24.32801 40.29546 18283 ft 373 kts 307°
2026-04-29 19:26 24.34458 40.27355 17283 ft 370 kts 307°
2026-04-29 19:26 24.36079 40.25215 16305 ft 367 kts 307°
2026-04-29 19:26 24.37710 40.23059 15360 ft 364 kts 307°
2026-04-29 19:26 24.39325 40.20923 14405 ft 363 kts 307°
2026-04-29 19:27 24.40942 40.18784 13438 ft 361 kts 307°
2026-04-29 19:27 24.42539 40.16671 12613 ft 356 kts 307°
2026-04-29 19:27 24.44097 40.14604 12124 ft 357 kts 307°
2026-04-29 19:27 24.45686 40.12497 11855 ft 356 kts 308°
2026-04-29 19:28 24.47509 40.10659 11604 ft 359 kts 324°
2026-04-29 19:28 24.49695 40.09321 11378 ft 359 kts 331°
2026-04-29 19:28 24.51894 40.08083 11146 ft 358 kts 331°
2026-04-29 19:28 24.54113 40.06827 10908 ft 356 kts 330°
2026-04-29 19:29 24.56313 40.05580 10670 ft 354 kts 331°
2026-04-29 19:29 24.58499 40.04336 10441 ft 353 kts 331°
2026-04-29 19:29 24.60643 40.03108 10211 ft 351 kts 330°
2026-04-29 19:29 24.62739 40.01688 9983 ft 353 kts 324°
2026-04-29 19:30 24.64733 40.00127 9744 ft 351 kts 322°
2026-04-29 19:30 24.66710 39.98572 9489 ft 344 kts 323°
2026-04-29 19:30 24.68568 39.97100 9235 ft 321 kts 323°
2026-04-29 19:30 24.70332 39.95714 8976 ft 300 kts 323°
2026-04-29 19:31 24.71984 39.94406 8549 ft 288 kts 320°
2026-04-29 19:31 24.72987 39.93460 8149 ft 284 kts 315°
2026-04-29 19:31 24.74385 39.91948 7542 ft 279 kts 314°
2026-04-29 19:31 24.75759 39.90442 7151 ft 279 kts 314°
2026-04-29 19:32 24.77147 39.88912 7172 ft 285 kts 314°
2026-04-29 19:32 24.78389 39.87238 7508 ft 294 kts 300°
2026-04-29 19:32 24.79327 39.85291 7601 ft 273 kts 294°
2026-04-29 19:32 24.79757 39.83384 7556 ft 245 kts 275°
2026-04-29 19:33 24.79865 39.81581 7420 ft 226 kts 272°
2026-04-29 19:33 24.79937 39.79930 7336 ft 212 kts 272°
2026-04-29 19:33 24.80021 39.78343 7152 ft 206 kts 274°
2026-04-29 19:33 24.80125 39.76784 6966 ft 200 kts 275°
2026-04-29 19:34 24.80240 39.75300 6879 ft 189 kts 275°
2026-04-29 19:34 24.80357 39.73896 6770 ft 179 kts 276°
2026-04-29 19:34 24.80477 39.72523 6527 ft 180 kts 275°
2026-04-29 19:34 24.80591 39.71171 6324 ft 177 kts 276°
2026-04-29 19:35 24.80702 39.69829 6196 ft 175 kts 276°
2026-04-29 19:35 24.80811 39.68492 6173 ft 172 kts 276°
2026-04-29 19:35 24.80720 39.67167 6163 ft 178 kts 255°
2026-04-29 19:35 24.80026 39.66101 6177 ft 168 kts 217°
2026-04-29 19:36 24.78937 39.65746 6183 ft 169 kts 180°
2026-04-29 19:36 24.77767 39.66001 6145 ft 172 kts 166°
2026-04-29 19:36 24.76582 39.66298 5828 ft 177 kts 169°
2026-04-29 19:36 24.75368 39.66551 5571 ft 178 kts 171°
2026-04-29 19:37 24.74151 39.66812 5314 ft 177 kts 171°
2026-04-29 19:37 24.73349 39.66981 5171 ft 176 kts 171°
2026-04-29 19:37 24.71773 39.67321 4872 ft 169 kts 171°
2026-04-29 19:37 24.70630 39.67563 4656 ft 169 kts 172°
2026-04-29 19:38 24.69483 39.67806 4433 ft 164 kts 172°
2026-04-29 19:38 24.68354 39.68046 4211 ft 167 kts 172°
2026-04-29 19:38 24.67244 39.68284 4006 ft 164 kts 171°
2026-04-29 19:38 24.66123 39.68524 3789 ft 160 kts 172°
2026-04-29 19:39 24.65027 39.68760 3585 ft 161 kts 173°
2026-04-29 19:39 24.63965 39.68985 3390 ft 156 kts 174°
2026-04-29 19:39 24.62886 39.69213 3184 ft 156 kts 173°
2026-04-29 19:39 24.61806 39.69442 2993 ft 158 kts 172°
2026-04-29 19:40 24.60742 39.69667 2801 ft 155 kts 172°
2026-04-29 19:40 24.59689 39.69897 2597 ft 149 kts 171°
2026-04-29 19:40 24.58678 39.70108 2382 ft 149 kts 169°
2026-04-29 19:40 24.57671 39.70326 2169 ft 146 kts 169°
2026-04-29 19:41 24.56686 39.70531 2123 ft 137 kts 168°
2026-04-29 19:41 24.55943 39.70694 2119 ft 75 kts 169°
2026-04-29 19:41 24.55638 39.70760 2114 ft 26 kts 168°
2026-04-29 19:41 24.55477 39.70795 2116 ft 23 kts 168°
2026-04-29 19:42 24.55358 39.70845 2115 ft 18 kts 152°
2026-04-29 19:42 24.55301 39.70887 2115 ft 8 kts 143°
2026-04-29 19:42 24.55258 39.70922 2115 ft 7 kts 143°
2026-04-29 19:42 24.55217 39.70967 2114 ft 8 kts 124°
2026-04-29 19:43 24.55218 39.71023 2113 ft 6 kts 75°
2026-04-29 19:43 24.55231 39.71097 2112 ft 13 kts 80°
2026-04-29 19:43 24.55239 39.71196 2111 ft 9 kts 98°
2026-04-29 19:43 24.55192 39.71235 2111 ft 10 kts 158°
2026-04-29 19:44 24.55106 39.71259 2111 ft 12 kts 167°
2026-04-29 19:44 24.55047 39.71273 2111 ft 7 kts 168°
2026-04-29 19:44 24.55023 39.71296 2111 ft 3 kts 116°
2026-04-29 19:44 24.55026 39.71319 2111 ft 4 kts 85°
2026-04-29 19:45 24.55032 39.71350 2111 ft 3 kts 81°
2026-04-29 19:45 24.55035 39.71366 2111 ft 3 kts 79°
2026-04-29 19:45 24.55037 39.71380 2112 ft 0 kts 78°